Flag for Austria Weather past 2 weeks in Enns, Upper Austria, Austria

Now
34 °F

Passing clouds.


Feels Like: 28 °F
Forecast: 24 / 36 °F
Wind: 7 mph from West

Location: Linz / Hoersching-Flughafen

Current Time: Jan 27, 2015 at 9:01:05 PM

Latest Report: Jan 27, 2015 at 8:00 PM


Visibility: 11 mi

Pressure: 30.14 "Hg

Humidity: 88%

Dew point: 31 °F

Location of EnnsLocation

Historic Weather in Enns — Graph

°F

Enns temperature yesterday

Maximum temperature yesterday: 34 °F (at 4:00 PM)
Minimum temperature yesterday: 27 °F (at 10:00 PM)
Average temperature yesterday: 32 °F

Past Weeks' High & Low Weather Summary

 TemperatureHumidityPressure
High48 °F (Jan 13, 3:00 PM)100% (Jan 26, 10:00 PM)30.38 "Hg (Jan 26, 10:00 PM)
Low26 °F (Jan 14, 3:00 AM)39% (Jan 13, 3:00 PM)29.75 "Hg (Jan 17, 2:00 AM)
Average34 °F87%30.06 "Hg
* Reported Jan 12 7:00 PM — Jan 27 7:00 PM, Enns, Weather by CustomWeather, © 2014

Note: Actual official high and low records may vary slightly from our data, if they occured in-between our weather recording intervals... More about our weather records

Advertising

Enns weather history for previous 24 hours

 ConditionsComfort  
Time TempWeatherWind HumidityBarometerVisibility
7:00 PM
Jan 27
34 °FLow clouds.5 mph91%30.13 "Hg9 mi
6:00 PM33 °FLow clouds.3 mph94%30.12 "Hg9 mi
5:00 PM34 °FOvercast.5 mph88%30.11 "Hg12 mi
4:00 PM35 °FOvercast.10 mph84%30.09 "Hg19 mi
1:00 PM36 °FOvercast.7 mph81%30.09 "Hg19 mi
12:00 PM36 °FLow clouds.8 mph84%30.08 "Hg14 mi
11:00 AM35 °FLow clouds.7 mph88%30.09 "Hg16 mi
10:00 AM34 °FOvercast.7 mph92%30.09 "Hg6 mi
9:00 AM34 °FLow clouds.6 mph90%30.09 "Hg9 mi
8:00 AM34 °FLight snow. Low clouds.12 mph89%30.07 "Hg12 mi
7:00 AM33 °FLight snow. Low clouds.7 mph94%30.06 "Hg4 mi
6:00 AM31 °FHeavy snow. Low clouds.5 mph98%30.05 "Hg2 mi
5:00 AMN/APassing clouds.10 mphN/AN/A7 mi
4:00 AM29 °FLight snow. Low clouds.N/A98%30.05 "Hg2 mi
3:00 AM29 °FHeavy snow. Low clouds.No wind98%30.06 "Hg1 mi
2:00 AM29 °FHeavy snow. Overcast.N/A98%30.08 "Hg2 mi
1:00 AM29 °FHeavy snow. Overcast.N/A97%30.10 "Hg2 mi
12:00 AM28 °FLight snow. Overcast.N/A96%30.14 "Hg4 mi
11:00 PM
Jan 26
28 °FPassing clouds.N/A97%30.16 "Hg4 mi
10:00 PM27 °FLight rain. Passing clouds.N/A100%30.18 "Hg0 mi
9:00 PM27 °FLight rain. Clear.N/A99%30.20 "Hg1 mi
Weather by CustomWeather, © 2014

See weather overviewHow to use our weather pages